SL-6 R/B(2) (20666 NORAD) Tracking and Keplerian Element Data

This shows tracking and keplerian element data for the satellite.

Feedback or suggestion? Click here.




ElementValue
Catalog20666
NameSL-6 R/B(2)
Epoch Orbit54195
Epoch Day344.52886448
Epoch Year2018
RAAN138.5066
Inclination62.7845
Eccentricity0.0070939
Argument of Perigee168.8736
Mean Anonmoly191.3948
Mean Motion14.92196105
Decay Rate1.7E-07
L11 20666U 90055D 18344.52886448 .00000017 00000-0 19912-4 0 9998
L22 20666 62.7845 138.5066 0070939 168.8736 191.3948 14.92196105541957

Live tracking and technical data element details for SL-6 R/B(2) (NORAD 20666). SL-6 R/B(2) can be tracked NOW for your location showing map with azimuth and elevation plus other details from your city location.

Track the satellite on the map from your city or location and see movement details for azimuth, elevation, latitude, longitude, range, height, and movement on the map or in text.







IsCatalogInMostPopularTable: catalog: 20666, numindb: 60
Update: records affected: 1



GetName: 20666 SL-6 R/B(2)

Hit Count: updated at: Thu, 13 Dec 2018 04:26:32 GMT